STARLINK-34083, 63908

Orbit data source: Space-Track

STARLINK-34083, 63908 is a payload satellite owned by SpaceX/Seattle (US) in LEO that was launched on Sat, 10 May 2025 UTC via an FALCON 9 launch vehicle from the Air Force Eastern Test Range (AFETR). Payload-class satellites include a variety of spacecraft equipped with specific instruments for various scientific and technological missions. These include communications satellites like Starlink; space stations such as the ISS; scientific satellites like the Hubble; Earth observation satellites from companies like Planet Labs, Umbra, and HawkEye 360; GPS; miniature CubeSats for education and research; and military/defense satellites.

Loading next visibility...
Identifier
63908, 2025-095U
Orbit
LEO
Country
Flag of USUS
Related business
Manufacturer
SpaceX/Seattle
Mission
Operational Commercial Communications
Bus & Motor
STARLINK V2MO, Unknown motor
Mass
575 kg wet, ~530 kg dry
Launch date (UTC)
2025-05-10 (1 year ago)
Launch vehicle
FALCON 9
Launch site
Air Force Eastern Test Range (AFETR)
Object type
Payload
Rocket body
Debris
Shape & HBR
Box + 2 Pan, 17.7 m
Radar Cross Section
36.964 m², Large (>1 m²)

Expand to show TLE details & history
Last TLE update: 9 hours ago

TLE from 9 hours ago
0 STARLINK-34083
1 63908U 25095U   26171.47390122  .00021608  00000-0  79209-3 0  9999
2 63908  42.9975 316.0621 0001625 265.0331  95.0335 15.27593579 63497
Epoch: 2026-06-20T11:22Z
TLE epoch observation values (Epoch: 2026-06-20T11:22:25.065Z)
Latitude
-0.00002°
Longitude
-123.23037°
Altitude
482.882 km
Speed
7.626 km/s
True Right ascension
21h 04m 14s
True Declination
0° 00' 00"
Sunlit
Object was in full shadow at epoch
Visualization orbit readout
Latitude
Unknown
Longitude
Unknown
Altitude
Unknown
Speed
Unknown
Apparent Right ascension
Unknown
Apparent Declination
Unknown
Sunlit
N/A
Visualization observer readout
Local Sidereal Time
07:18:05
Azimuth
Unknown
Elevation
Unknown
Doppler factor
Unknown
Orbital elements
Apogee altitude
486.069 km
Perigee altitude
483.839 km
Semi-major axis
6,863.091 km
Eccentricity
0.00016
Inclination
42.9975°
RAAN
316.0621°
Arg. of periapsis
265.0331°
True anomaly
95.05205°
Mean anomaly
95.0335°
Eccentric anomaly
95.04277°
Mean motion
3.81736 °/min
Orbital period
94.31 mins
BSTAR
0.00079209
Loading maneuver chart data...
Computing Atmospheric mass density...
Loading historical data...
Loading historical data...
Loading historical data...
Loading historical data...
Loading historical data...
Loading historical data...
Loading historical data...

Documentation

Showing up to 5 results
|